Temp
-5 -4 -5 -5 -4 -5 -5 -6 -5 -5 -6 -5 -5 -5 -5 -5 -5 -5 -5 -5 -6 -6 -6 -5 -5 -6 -5 -5 -6 -6 -7 -7 -7 -7 -8 -8 -9 -9 -8 -8 -8 -8 -8 -8 -7 -7 -7 -8 -8
-5 -5 -5 -5 -5 -5 -5 -6 -5 -5 -5 -5 -5 -5 -5 -4 -5 -5 -5 -5 -5 -6 -6 -5 -5 -6 -6 -5 -6 -6 -7 -7 -7 -7 -8 -8 -8 -8 -8 -8 -8 -8 -8 -7 -7 -7 -7 -8 -8
-5 -4 -5 -5 -6 -7 -6 -5 -5 -5 -5 -5 -5 -5 -5 -5 -5 -5 -5 -5 -5 -6 -6 -6 -5 -6 -6 -6 -6 -6 -7 -7 -7 -7 -8 -8 -8 -8 -8 -8 -7 -7 -8 -8 -8 -7 -7 -7 -7
-4 -5 -5 -7 -5 -6 -6 -6 -6 -5 -6 -6 -5 -5 -5 -5 -5 -5 -5 -5 -5 -6 -6 -6 -6 -5 -6 -6 -6 -6 -7 -7 -7 -7 -8 -8 -8 -8 -8 -7 -7 -7 -7 -7 -7 -7 -7 -7 -7
-5 -5 -6 -8 -8 -7 -7 -5 -5 -5 -5 -5 -5 -5 -5 -5 -5 -5 -5 -5 -5 -5 -6 -6 -6 -6 -5 -6 -6 -6 -6 -7 -7 -8 -8 -8 -8 -7 -7 -7 -7 -7 -7 -7 -7 -7 -7 -7 -8
-5 -6 -7 -8 -8 -8 -7 -5 -5 -5 -5 -5 -5 -5 -5 -5 -5 -5 -5 -5 -5 -5 -6 -6 -6 -6 -5 -6 -6 -6 -6 -6 -7 -7 -7 -7 -7 -7 -7 -7 -7 -7 -7 -7 -7 -7 -7 -7 -7
-8 -7 -8 -7 -8 -6 -6 -5 -5 -5 -6 -5 -5 -5 -5 -5 -5 -5 -5 -5 -5 -5 -6 -6 -6 -6 -6 -6 -6 -6 -6 -6 -6 -7 -7 -7 -7 -7 -7 -7 -7 -7 -7 -7 -7 -7 -7 -7 -7
-6 -7 -8 -8 -8 -6 -6 -5 -5 -5 -5 -5 -5 -5 -5 -5 -5 -5 -5 -5 -6 -6 -6 -6 -6 -6 -6 -6 -6 -6 -6 -6 -6 -6 -7 -7 -7 -7 -7 -7 -7 -7 -7 -7 -7 -7 -6 -7 -7
-7 -8 -8 -8 -9 -8 -6 -6 -5 -5 -5 -5 -5 -5 -5 -5 -5 -5 -5 -5 -6 -6 -6 -6 -6 -6 -6 -6 -6 -6 -6 -6 -6 -6 -7 -7 -6 -6 -7 -7 -7 -7 -7 -7 -7 -7 -6 -7 -7
-8 -8 -8 -7 -9 -8 -6 -6 -6 -5 -5 -5 -5 -5 -5 -5 -5 -5 -6 -5 -5 -6 -6 -6 -6 -6 -6 -6 -6 -6 -6 -6 -6 -6 -7 -7 -6 -6 -6 -6 -7 -7 -6 -7 -7 -7 -7 -7 -7
-7 -8 -7 -9 -6 -6 -6 -6 -6 -6 -7 -6 -6 -6 -6 -6 -5 -5 -5 -6 -6 -6 -6 -6 -6 -6 -6 -6 -6 -6 -6 -6 -6 -6 -6 -6 -6 -6 -6 -6 -6 -6 -6 -6 -6 -6 -7 -7 -7
-9 -7 -7 -7 -7 -7 -9 -6 -7 -6 -7 -7 -6 -6 -6 -6 -6 -6 -6 -6 -6 -7 -6 -6 -6 -6 -6 -6 -6 -6 -6 -6 -6 -6 -6 -6 -6 -6 -6 -6 -6 -6 -6 -6 -6 -6 -6 -6 -7
-9 -8 -7 -7 -8 -8 -7 -7 -6 -6 -7 -7 -6 -6 -6 -6 -6 -6 -6 -6 -7 -7 -6 -5 -5 -6 -6 -6 -6 -6 -6 -6 -6 -6 -6 -6 -6 -5 -6 -6 -5 -6 -6 -6 -6 -6 -6 -6 -7
-7 -7 -7 -7 -7 -8 -8 -8 -7 -6 -7 -7 -6 -6 -6 -6 -6 -6 -6 -7 -7 -7 -7 -6 -5 -6 -6 -6 -6 -6 -6 -6 -6 -6 -6 -6 -6 -5 -5 -5 -5 -5 -6 -6 -6 -6 -6 -6 -6
-7 -9 -9 -7 -8 -8 -7 -6 -7 -6 -7 -6 -6 -6 -6 -6 -6 -6 -7 -7 -7 -7 -7 -7 -7 -6 -6 -6 -6 -6 -6 -6 -6 -6 -6 -5 -5 -5 -6 -5 -5 -6 -7 -6 -7 -6 -6 -6 -6
-8 -8 -8 -8 -9 -7 -8 -7 -7 -7 -6 -7 -7 -6 -6 -6 -6 -6 -7 -7 -7 -7 -7 -8 -8 -8 -7 -6 -6 -6 -6 -6 -6 -6 -6 -6 -5 -5 -5 -5 -5 -6 -6 -6 -6 -6 -6 -6 -6
-8 -7 -8 -8 -7 -7 -8 -6 -7 -6 -6 -6 -7 -6 -6 -7 -6 -7 -7 -7 -7 -7 -7 -7 -8 -7 -7 -7 -6 -6 -6 -6 -6 -5 -5 -6 -5 -5 -5 -5 -5 -6 -6 -6 -6 -6 -7 -7 -6
-8 -8 -8 -8 -7 -6 -7 -6 -7 -7 -6 -6 -6 -6 -7 -7 -7 -7 -7 -7 -7 -7 -7 -8 -7 -7 -7 -6 -6 -6 -6 -6 -6 -5 -5 -5 -5 -5 -5 -5 -5 -5 -5 -6 -6 -6 -7 -7 -6
-7 -8 -8 -8 -7 -8 -7 -7 -7 -6 -6 -7 -7 -7 -7 -8 -7 -7 -7 -7 -7 -7 -7 -7 -7 -8 -7 -7 -6 -6 -6 -6 -6 -6 -6 -5 -5 -5 -5 -5 -5 -5 -5 -5 -5 -5 -6 -6 -6
-7 -8 -8 -8 -7 -8 -7 -8 -7 -7 -7 -7 -7 -7 -8 -8 -7 -7 -7 -7 -7 -7 -7 -7 -7 -7 -8 -7 -7 -7 -7 -6 -6 -6 -6 -5 -5 -5 -6 -5 -5 -5 -5 -5 -5 -5 -5 -6 -6
-8 -8 -8 -8 -8 -8 -8 -7 -8 -7 -7 -7 -7 -7 -7 -8 -8 -7 -7 -7 -7 -7 -7 -7 -7 -7 -7 -7 -7 -7 -7 -7 -6 -6 -6 -6 -6 -6 -6 -6 -5 -5 -5 -5 -5 -5 -5 -5 -5
-8 -8 -7 -7 -8 -8 -7 -8 -8 -8 -8 -8 -8 -7 -7 -7 -7 -8 -7 -8 -8 -7 -7 -7 -7 -7 -7 -7 -7 -7 -7 -7 -7 -7 -7 -7 -7 -7 -6 -5 -5 -5 -5 -5 -5 -5 -5 -5 -5
-8 -7 -8 -8 -9 -8 -7 -8 -7 -7 -8 -8 -7 -7 -7 -7 -7 -8 -8 -8 -8 -8 -8 -7 -7 -7 -7 -7 -7 -7 -7 -6 -7 -7 -7 -7 -7 -6 -6 -6 -6 -5 -5 -5 -5 -5 -5 -5 -5
-7 -7 -8 -8 -8 -7 -7 -7 -7 -8 -7 -7 -8 -8 -7 -7 -8 -8 -8 -8 -8 -8 -8 -8 -8 -8 -8 -7 -7 -7 -7 -7 -8 -8 -7 -6 -6 -6 -6 -6 -6 -6 -6 -5 -6 -6 -5 -5 -5
-7 -8 -7 -7 -6 -7 -8 -8 -8 -9 -8 -8 -8 -8 -8 -8 -8 -8 -9 -8 -8 -8 -8 -8 -8 -8 -8 -8 -7 -7 -7 -7 -8 -8 -8 -7 -7 -6 -6 -6 -6 -6 -6 -6 -5 -5 -6 -6 -5
-8 -7 -7 -7 -7 -7 -7 -7 -8 -8 -8 -8 -8 -8 -9 -9 -9 -8 -8 -8 -9 -8 -8 -8 -8 -8 -7 -8 -8 -7 -7 -7 -7 -7 -6 -6 -6 -6 -6 -6 -6 -7 -7 -6 -6 -6 -5 -6 -6
-8 -8 -7 -6 -6 -6 -7 -8 -8 -8 -8 -8 -8 -8 -8 -8 -8 -9 -9 -9 -9 -8 -8 -8 -8 -8 -8 -8 -8 -7 -7 -7 -7 -7 -6 -6 -6 -6 -6 -6 -7 -6 -6 -6 -6 -7 -7 -6 -6
-8 -8 -8 -7 -8 -6 -7 -7 -7 -8 -8 -8 -8 -8 -8 -8 -8 -8 -8 -8 -9 -9 -9 -8 -8 -8 -8 -8 -8 -7 -7 -7 -7 -7 -7 -6 -5 -5 -6 -6 -6 -6 -6 -6 -6 -6 -7 -7 -7
-8 -8 -8 -8 -8 -8 -7 -7 -5 -8 -8 -8 -8 -8 -8 -8 -8 -8 -8 -8 -8 -8 -8 -8 -8 -8 -8 -8 -8 -8 -7 -7 -7 -7 -7 -7 -6 -6 -5 -6 -6 -6 -7 -7 -7 -7 -7 -7 -7
-8 -9 -7 -8 -8 -8 -7 -8 -6 -8 -8 -8 -8 -8 -8 -8 -8 -8 -8 -8 -8 -8 -8 -8 -8 -8 -8 -8 -8 -8 -8 -7 -7 -7 -7 -7 -7 -7 -6 -6 -6 -6 -6 -6 -7 -7 -7 -7 -7
Height
5923 5923 5924 5923 5919 5920 5920 5919 5917 5916 5914 5913 5912 5911 5910 5909 5908 5909 5907 5906 5905 5906 5906 5907 5907 5906 5906 5907 5906 5905 5905 5904 5904 5903 5901 5898 5896 5894 5894 5894 5895 5895 5896 5895 5896 5898 5899 5900 5900
5924 5924 5925 5924 5921 5924 5923 5920 5918 5916 5915 5914 5913 5911 5910 5906 5908 5907 5907 5907 5905 5906 5907 5908 5908 5908 5908 5909 5909 5907 5907 5906 5905 5904 5903 5901 5898 5897 5896 5897 5897 5897 5898 5897 5898 5899 5899 5901 5901
5924 5924 5926 5924 5927 5926 5924 5920 5918 5917 5915 5914 5913 5911 5910 5909 5908 5907 5907 5907 5906 5906 5907 5909 5908 5909 5909 5910 5911 5909 5909 5908 5908 5906 5904 5902 5900 5899 5899 5899 5899 5899 5899 5899 5899 5899 5900 5901 5902
5925 5926 5928 5928 5927 5925 5923 5920 5919 5917 5915 5914 5913 5911 5910 5909 5908 5908 5907 5907 5907 5907 5908 5909 5909 5910 5910 5911 5911 5910 5910 5910 5909 5908 5906 5904 5902 5901 5901 5900 5900 5900 5900 5901 5902 5902 5902 5903 5904
5926 5928 5929 5930 5928 5925 5924 5921 5919 5918 5917 5915 5913 5911 5910 5909 5908 5907 5907 5907 5908 5908 5909 5911 5910 5911 5912 5912 5912 5912 5911 5911 5911 5910 5909 5908 5907 5905 5904 5902 5901 5902 5902 5903 5905 5905 5905 5905 5906
5927 5931 5933 5933 5930 5928 5923 5922 5920 5919 5917 5916 5914 5912 5911 5909 5908 5908 5907 5908 5908 5909 5910 5912 5911 5912 5913 5914 5914 5914 5913 5913 5913 5913 5912 5911 5911 5909 5907 5906 5905 5905 5905 5905 5906 5907 5907 5907 5907
5929 5932 5934 5933 5930 5927 5924 5922 5921 5919 5918 5916 5914 5912 5912 5910 5909 5908 5908 5908 5909 5910 5911 5913 5912 5913 5915 5915 5915 5916 5915 5915 5915 5915 5914 5914 5913 5911 5911 5910 5909 5909 5908 5908 5908 5908 5909 5909 5909
5931 5936 5936 5937 5934 5928 5926 5924 5922 5919 5918 5916 5914 5913 5911 5909 5908 5908 5908 5908 5909 5910 5912 5913 5913 5915 5916 5917 5917 5918 5917 5917 5917 5917 5916 5915 5915 5914 5912 5913 5913 5912 5911 5910 5911 5911 5911 5911 5911
5933 5939 5938 5937 5933 5930 5927 5926 5923 5922 5919 5917 5915 5913 5911 5910 5909 5908 5909 5909 5910 5910 5911 5913 5913 5915 5917 5919 5919 5920 5920 5919 5919 5919 5918 5918 5919 5919 5916 5914 5912 5912 5913 5913 5913 5913 5913 5913 5913
5934 5938 5934 5933 5934 5931 5929 5927 5925 5922 5920 5917 5916 5913 5912 5911 5910 5909 5909 5909 5910 5910 5911 5913 5913 5915 5917 5919 5920 5921 5921 5921 5920 5920 5920 5920 5920 5921 5917 5915 5914 5914 5915 5915 5916 5916 5915 5914 5914
5934 5934 5934 5934 5932 5930 5929 5928 5926 5924 5921 5918 5916 5915 5913 5912 5911 5910 5909 5909 5909 5910 5910 5911 5913 5915 5917 5919 5920 5921 5922 5922 5922 5922 5922 5921 5921 5921 5919 5917 5916 5917 5916 5917 5915 5919 5917 5916 5915
5938 5934 5934 5933 5932 5931 5930 5929 5928 5925 5923 5920 5917 5915 5914 5912 5911 5911 5910 5909 5908 5908 5908 5909 5911 5914 5917 5920 5921 5923 5923 5923 5924 5924 5923 5923 5923 5922 5918 5915 5920 5919 5918 5917 5919 5918 5919 5919 5918
5938 5935 5934 5934 5933 5931 5930 5929 5928 5926 5924 5921 5919 5917 5915 5913 5912 5911 5910 5909 5908 5907 5905 5905 5908 5912 5916 5920 5922 5924 5925 5925 5925 5925 5925 5924 5924 5924 5918 5917 5924 5922 5919 5918 5919 5920 5921 5921 5921
5935 5935 5935 5934 5934 5933 5933 5930 5929 5928 5925 5922 5920 5918 5916 5914 5912 5912 5910 5910 5909 5907 5905 5904 5907 5912 5916 5919 5922 5924 5926 5927 5926 5927 5926 5925 5926 5926 5927 5914 5903 5928 5925 5922 5921 5922 5922 5923 5924
5936 5940 5937 5935 5934 5934 5931 5927 5929 5928 5927 5924 5920 5918 5917 5915 5913 5912 5911 5911 5911 5910 5908 5908 5910 5914 5917 5920 5923 5924 5926 5927 5927 5928 5928 5928 5927 5927 5929 5927 5927 5929 5927 5925 5924 5924 5925 5926 5927
5942 5945 5944 5936 5935 5935 5934 5928 5929 5928 5927 5926 5923 5921 5919 5918 5916 5915 5912 5911 5911 5911 5912 5911 5911 5915 5919 5921 5923 5925 5926 5927 5928 5928 5929 5929 5929 5929 5929 5930 5930 5929 5928 5928 5928 5927 5927 5929 5929
5946 5948 5943 5939 5935 5934 5934 5930 5928 5927 5927 5926 5925 5923 5921 5920 5918 5916 5915 5913 5912 5911 5913 5914 5914 5916 5919 5922 5923 5924 5925 5927 5928 5928 5929 5929 5930 5930 5931 5931 5931 5931 5931 5930 5930 5930 5930 5931 5932
5945 5944 5942 5941 5935 5932 5930 5928 5926 5926 5927 5927 5926 5925 5923 5922 5921 5918 5917 5915 5915 5914 5913 5916 5917 5918 5920 5921 5923 5924 5926 5927 5928 5928 5929 5930 5930 5930 5931 5932 5932 5932 5933 5933 5934 5932 5932 5932 5933
5940 5939 5940 5939 5934 5933 5929 5927 5925 5925 5927 5927 5927 5926 5925 5924 5923 5921 5918 5917 5916 5916 5916 5917 5918 5918 5919 5920 5923 5924 5924 5925 5926 5926 5927 5928 5929 5930 5931 5932 5933 5932 5932 5933 5934 5933 5932 5933 5934
5936 5939 5943 5938 5933 5933 5929 5928 5925 5924 5925 5926 5927 5927 5927 5926 5924 5923 5921 5920 5919 5919 5917 5917 5919 5919 5920 5922 5923 5924 5925 5924 5924 5925 5927 5928 5930 5931 5931 5931 5931 5932 5932 5932 5933 5933 5933 5933 5934
5936 5940 5938 5935 5932 5931 5930 5928 5926 5924 5924 5926 5926 5927 5928 5928 5926 5925 5924 5922 5921 5920 5920 5919 5918 5918 5919 5920 5922 5923 5923 5924 5925 5926 5928 5929 5929 5929 5930 5931 5931 5931 5930 5931 5931 5932 5933 5933 5933
5939 5935 5932 5930 5931 5936 5931 5927 5923 5925 5924 5926 5927 5928 5928 5928 5927 5926 5925 5924 5923 5922 5921 5921 5921 5921 5920 5921 5920 5920 5921 5922 5924 5925 5926 5927 5927 5928 5928 5928 5929 5930 5930 5930 5931 5931 5932 5933 5933
5934 5930 5929 5928 5928 5931 5930 5928 5922 5924 5923 5926 5927 5928 5928 5927 5927 5927 5926 5925 5924 5923 5923 5923 5922 5922 5922 5921 5921 5921 5922 5923 5924 5926 5926 5926 5926 5926 5926 5926 5926 5926 5927 5928 5928 5929 5930 5930 5931
5928 5928 5927 5928 5929 5930 5931 5929 5889 5920 5923 5925 5926 5927 5927 5926 5926 5926 5926 5926 5925 5925 5924 5924 5923 5922 5922 5921 5920 5921 5921 5922 5922 5921 5923 5923 5924 5924 5925 5925 5924 5924 5924 5924 5924 5925 5926 5927 5928
5926 5927 5930 5932 5932 5929 5927 5921 5922 5923 5924 5924 5924 5925 5925 5926 5925 5925 5925 5925 5925 5925 5924 5924 5924 5923 5922 5921 5919 5919 5919 5918 5919 5919 5918 5919 5919 5919 5919 5922 5924 5923 5922 5922 5922 5921 5922 5922 5923
5927 5930 5932 5931 5929 5926 5924 5924 5922 5921 5922 5924 5924 5924 5924 5924 5924 5924 5924 5923 5923 5923 5922 5921 5921 5921 5921 5920 5919 5918 5917 5916 5915 5915 5916 5917 5916 5916 5916 5917 5916 5918 5918 5919 5919 5919 5918 5918 5918
5927 5927 5928 5928 5928 5926 5918 5921 5922 5919 5921 5922 5923 5923 5923 5923 5922 5919 5921 5921 5920 5919 5918 5918 5918 5917 5917 5917 5916 5916 5915 5913 5912 5912 5910 5910 5911 5911 5911 5912 5912 5911 5912 5913 5913 5914 5915 5915 5915
5921 5922 5924 5920 5918 5924 5917 5915 5911 5915 5917 5919 5920 5921 5921 5920 5919 5918 5918 5917 5916 5916 5915 5913 5912 5912 5911 5911 5911 5911 5911 5910 5910 5908 5908 5905 5904 5904 5904 5906 5906 5907 5906 5905 5906 5908 5909 5910 5910
5913 5920 5919 5919 5918 5914 5915 5903 5899 5909 5912 5914 5915 5916 5915 5915 5914 5913 5912 5911 5911 5910 5908 5907 5905 5905 5904 5904 5904 5904 5904 5904 5904 5901 5900 5899 5898 5897 5898 5898 5899 5900 5900 5899 5898 5900 5902 5904 5904
5913 5916 5910 5916 5909 5911 5911 5903 5902 5904 5908 5908 5909 5908 5908 5907 5906 5905 5904 5903 5902 5901 5900 5899 5898 5896 5895 5895 5895 5895 5896 5896 5895 5893 5894 5893 5894 5893 5892 5891 5891 5892 5893 5893 5893 5894 5895 5897 5898
Wind_Speed
7 10 10 13 13 19 8 16 9 6 9 6 8 5 3 2 3 2 4 2 3 5 6 6 8 8 9 8 9 9 10 12 14 15 14 12 13 10 9 8 7 7 7 8 9 9 10 9 7
5 8 9 11 19 12 13 4 11 11 9 8 7 5 2 4 3 3 2 2 2 5 5 6 7 8 10 7 7 9 9 10 14 15 16 14 14 11 10 10 9 8 8 8 7 7 6 6 6
8 11 12 10 6 5 11 10 11 12 12 9 5 5 2 2 2 1 1 3 2 4 6 7 8 7 10 8 8 9 11 12 13 15 16 16 16 12 10 10 8 8 7 7 6 5 6 6 4
12 12 10 12 8 7 10 13 12 13 11 9 9 5 3 3 2 1 1 3 3 3 6 7 7 7 9 8 9 9 10 12 13 14 14 15 15 14 11 10 9 9 8 7 8 9 7 7 6
13 20 14 10 9 9 9 13 11 12 9 9 12 7 2 1 1 1 2 3 4 4 7 8 7 8 9 8 10 10 11 11 13 13 13 13 13 13 13 12 11 9 9 8 7 8 7 6 6
16 10 15 5 9 6 13 13 10 9 9 9 12 10 4 1 2 1 3 4 5 4 8 9 9 9 10 10 10 10 11 11 10 10 12 12 13 13 13 14 13 10 9 8 8 8 8 8 9
12 5 8 7 6 11 12 13 13 11 11 11 13 12 7 3 3 2 1 5 5 6 9 9 8 9 11 11 11 10 11 11 9 8 9 11 11 11 12 14 15 13 11 10 9 10 9 9 10
12 14 9 9 7 7 9 11 13 15 15 14 12 10 9 5 2 0 2 4 6 7 8 11 10 11 11 12 12 11 11 11 9 7 5 6 7 6 8 9 13 14 14 12 10 11 11 11 10
9 11 2 6 5 8 9 11 11 12 14 13 14 13 10 7 2 2 2 5 6 6 8 11 14 13 13 13 13 10 12 13 11 10 11 17 14 10 10 9 14 12 13 11 9 8 9 10 10
14 5 2 1 5 5 8 11 11 12 12 14 14 12 10 7 3 3 4 3 4 4 7 11 14 15 14 14 15 11 10 11 9 9 11 16 14 9 6 8 7 11 11 10 10 8 8 10 10
5 1 2 2 1 5 8 11 13 15 15 14 14 12 10 7 3 1 1 5 6 6 7 9 14 17 17 17 15 13 10 9 8 8 7 9 10 12 14 15 14 12 8 10 13 4 7 9 10
4 1 1 1 3 4 6 9 11 13 13 13 13 12 10 7 3 2 1 1 3 5 8 13 16 19 20 19 16 14 12 10 9 10 6 8 9 11 9 12 14 11 5 10 8 10 10 8 10
6 3 2 2 3 4 8 10 9 9 11 12 12 11 10 9 5 4 3 2 4 1 2 13 20 23 22 21 19 14 10 10 9 9 7 7 7 10 12 16 11 13 10 12 11 9 5 7 9
4 4 3 4 3 7 12 16 10 10 8 11 13 11 9 8 7 7 8 6 4 7 4 7 24 25 24 22 20 16 9 7 6 8 8 7 10 12 15 11 11 15 10 13 15 7 8 5 8
7 4 6 2 2 4 3 8 15 12 11 10 9 9 9 8 6 7 8 9 4 5 6 13 21 24 23 21 19 16 11 9 7 6 8 8 9 10 11 11 13 12 11 9 8 11 10 9 10
7 7 6 2 3 2 6 15 16 9 10 9 11 11 10 8 6 6 6 7 6 6 5 7 23 17 20 19 17 15 13 11 8 7 7 7 5 5 6 6 7 8 10 11 12 11 11 11 10
4 5 0 11 4 4 8 14 12 9 7 7 7 10 12 11 7 5 6 6 5 6 9 11 9 9 14 15 16 15 13 12 10 8 8 8 6 4 4 4 6 7 8 7 8 8 7 5 7
10 4 2 3 8 7 9 7 9 9 6 8 9 10 13 14 12 7 5 6 5 6 4 11 13 12 12 15 15 15 14 13 12 10 9 8 8 5 4 3 3 5 5 6 4 6 7 7 6
21 3 2 5 8 9 9 8 11 9 2 4 7 8 11 13 13 9 6 4 5 5 5 3 5 6 15 14 17 16 16 15 15 14 14 13 11 9 7 6 5 2 3 3 3 4 6 7 8
6 2 7 8 9 4 8 8 10 4 2 2 2 5 10 11 12 10 7 6 5 3 3 2 1 3 1 10 16 15 16 14 16 18 16 15 14 13 10 11 10 8 6 5 3 2 3 6 4
3 5 11 8 10 5 8 5 7 4 1 1 4 7 8 7 7 6 9 10 8 8 3 2 2 4 6 8 9 15 16 14 14 16 16 14 15 15 15 15 14 14 12 9 9 8 6 5 5
1 17 13 8 2 7 7 20 9 5 1 2 3 6 5 0 3 3 6 6 7 9 10 8 5 5 8 8 10 16 19 13 13 15 13 15 16 17 17 17 18 19 17 16 15 13 12 10 9
10 12 7 8 6 10 10 13 4 9 8 6 7 6 6 5 1 1 4 6 7 8 10 12 13 12 10 10 10 8 10 15 13 15 16 16 18 19 19 19 19 19 19 20 20 20 18 15 15
5 3 6 7 8 8 13 17 8 6 8 6 7 11 6 5 2 1 4 6 8 9 10 9 11 13 13 13 11 10 12 14 17 13 19 20 20 23 22 22 22 20 19 19 20 21 23 22 21
1 5 5 4 8 13 10 18 13 6 10 8 10 11 5 5 4 6 10 11 12 10 8 10 9 9 11 12 12 9 11 10 12 18 13 17 20 21 23 23 23 24 24 22 21 22 22 25 25
9 5 8 11 12 15 16 15 15 11 15 11 12 11 8 8 8 9 12 15 17 17 17 17 17 16 12 12 13 11 10 9 9 11 10 16 19 22 24 23 23 25 24 25 25 26 26 26 27
10 4 9 9 13 10 22 13 9 15 15 17 17 15 14 17 24 11 15 17 20 20 20 21 21 21 21 19 18 15 15 16 15 12 12 12 15 19 23 23 26 26 26 27 30 27 27 26 25
13 12 9 16 18 10 23 16 17 16 18 20 21 22 21 22 24 22 21 19 21 24 26 27 27 27 26 26 26 24 21 18 18 18 17 17 17 18 19 22 25 24 27 27 31 30 29 28 26
4 8 13 6 10 8 19 25 15 14 15 21 23 23 25 27 26 26 27 27 27 29 30 32 33 34 35 34 34 32 30 27 24 24 22 21 21 19 21 21 24 28 29 26 25 28 30 28 30
17 11 11 8 18 22 8 29 23 20 19 22 23 25 27 29 29 31 34 36 37 38 39 41 42 42 42 42 41 40 36 34 32 29 26 24 21 24 24 23 25 26 27 30 29 25 29 28 28
Wind_Direction
75 84 76 61 49 57 351 15 12 44 342 8 17 3 341 300 222 250 347 83 121 132 133 129 108 109 102 92 80 85 64 61 58 54 50 56 59 72 95 116 115 101 93 87 106 109 106 105 107
79 80 82 73 50 29 323 332 357 4 357 348 340 358 9 319 264 262 318 120 120 146 147 144 119 116 109 107 87 81 84 73 58 56 55 62 64 81 100 109 111 101 85 84 90 117 117 104 107
82 72 83 69 82 44 326 352 6 6 4 3 332 300 296 307 279 266 157 121 129 154 151 158 135 114 111 106 99 95 95 85 70 61 55 60 64 72 99 109 107 99 91 84 107 108 118 86 87
75 67 69 66 27 14 7 1 11 14 12 19 23 8 335 287 276 20 100 111 126 149 158 159 150 118 111 105 101 105 97 87 80 77 67 61 66 68 86 105 106 95 94 90 98 101 99 94 97
73 74 70 27 36 11 348 3 6 10 7 19 23 29 26 58 337 321 120 133 137 148 165 163 165 137 120 112 102 100 101 90 80 81 80 70 69 75 82 90 91 91 93 96 99 99 95 92 102
79 74 73 34 42 18 357 3 2 16 21 21 22 20 18 301 325 324 130 145 147 148 162 169 168 136 129 125 108 101 109 100 91 82 80 75 71 72 82 91 95 104 107 105 105 87 80 76 81
91 108 99 25 354 354 3 11 17 17 11 11 10 14 11 333 321 333 124 144 159 161 163 169 172 155 142 137 120 108 112 108 98 87 80 84 84 83 86 88 89 95 101 101 95 81 86 96 95
71 54 39 54 328 18 4 7 17 21 14 15 11 7 10 10 8 339 166 156 161 159 165 169 163 163 150 146 136 118 117 116 115 97 92 113 98 87 89 90 91 94 91 92 94 77 75 85 97
77 98 40 51 20 3 6 13 20 22 25 17 12 14 20 13 25 123 146 152 153 173 181 171 169 160 162 156 147 136 125 120 111 95 58 88 91 42 109 110 125 117 103 96 103 91 80 86 84
98 205 42 28 43 7 19 25 20 17 12 16 11 14 23 25 34 129 133 142 159 185 191 186 180 177 166 161 152 147 141 131 120 105 83 95 86 145 95 135 155 117 89 102 89 93 82 80 83
146 151 166 19 331 352 8 24 23 31 15 18 19 13 15 20 34 29 176 169 178 203 218 206 189 183 176 166 162 152 142 137 131 120 105 97 71 67 80 59 103 127 95 121 102 151 102 87 81
72 155 211 58 13 9 353 8 31 24 23 18 21 17 14 10 33 49 107 117 169 213 229 225 198 186 175 172 168 156 145 135 130 121 126 113 86 77 121 63 101 101 87 110 136 124 89 92 88
111 150 73 1 31 327 344 353 18 22 26 15 13 27 25 19 41 55 46 83 131 53 268 214 194 186 175 175 168 164 159 147 132 116 130 123 92 77 53 101 98 84 88 88 134 137 80 95 84
161 74 36 28 358 347 16 335 12 353 19 27 21 28 34 33 41 49 58 86 76 42 45 152 178 175 175 175 175 170 166 169 149 121 122 108 102 87 101 110 88 66 74 83 89 116 116 104 85
99 51 36 286 327 35 97 170 309 339 357 16 28 36 37 33 45 68 76 76 50 37 50 141 159 167 172 176 183 176 176 184 177 139 127 123 105 97 94 94 102 112 82 66 91 87 121 114 102
72 68 307 291 67 105 41 319 297 326 338 359 13 24 39 34 29 37 60 73 64 83 141 120 160 164 169 176 182 179 179 182 188 174 148 149 125 111 91 101 87 78 84 73 71 86 116 117 112
22 209 202 328 341 47 207 268 300 313 328 333 2 8 26 29 24 38 33 51 60 57 171 163 148 160 171 180 182 182 182 190 192 196 190 172 171 162 130 115 107 89 89 78 70 68 85 93 138
210 183 337 310 315 340 326 317 297 303 312 315 337 8 18 22 18 16 25 42 29 62 137 187 174 183 186 194 196 196 196 202 208 215 220 216 201 197 207 185 143 123 115 104 80 86 76 69 117
208 221 326 320 306 330 342 312 310 313 297 319 331 25 27 14 19 0 7 17 61 27 84 139 156 162 219 219 210 207 206 214 214 217 226 230 228 217 222 239 239 212 159 144 139 105 99 102 121
190 293 339 294 295 315 332 324 321 331 213 207 355 20 24 10 10 9 14 23 13 60 12 60 246 279 191 203 232 225 226 226 230 222 228 235 240 239 232 238 248 248 237 237 228 211 142 133 146
308 281 254 249 276 325 311 303 271 314 60 100 3 3 21 10 11 20 40 59 12 8 18 342 304 269 280 286 247 227 235 234 241 237 233 243 249 246 248 246 246 249 252 247 249 243 242 212 195
111 253 281 278 139 289 277 256 180 195 237 205 291 317 346 66 61 39 18 35 36 27 21 12 341 303 299 297 305 262 234 245 243 246 249 250 248 250 246 245 247 250 252 257 258 256 250 251 245
213 271 259 282 262 252 220 278 239 198 207 233 273 312 299 262 254 37 0 356 350 346 357 7 9 7 342 313 319 327 246 293 285 274 264 258 260 261 257 255 252 249 251 253 260 264 259 250 253
258 262 2 332 296 237 235 254 107 203 230 247 283 306 300 279 250 318 15 357 355 349 347 354 5 5 10 4 348 310 291 284 287 290 278 271 269 271 271 262 255 250 250 254 256 260 262 264 261
198 49 328 252 280 224 213 256 257 202 231 255 297 307 313 306 299 315 316 319 324 326 327 331 336 354 354 348 339 347 337 326 295 289 276 271 267 266 265 267 269 263 263 265 261 255 256 259 264
255 243 265 260 244 234 269 249 238 226 228 252 280 259 256 252 253 272 285 298 294 299 306 311 317 318 318 327 326 310 312 325 322 315 300 275 265 268 272 267 265 264 263 265 263 258 259 255 256
221 204 268 218 270 260 251 251 269 227 242 248 253 256 262 258 270 253 270 274 279 291 293 297 298 301 304 307 308 301 297 296 294 295 295 287 281 275 269 269 270 270 273 272 269 262 262 260 260
193 245 256 216 201 216 254 278 281 231 238 248 254 261 267 267 266 274 276 269 273 277 279 280 284 285 287 288 293 297 295 288 285 290 284 282 277 273 272 266 265 264 266 273 270 262 261 260 260
136 246 226 280 304 262 281 225 168 228 264 265 262 265 271 276 276 274 275 276 274 274 277 278 281 281 282 285 285 287 286 289 285 281 277 265 270 270 268 267 264 262 262 272 271 256 258 258 261
222 250 286 280 279 232 242 288 293 304 285 278 278 278 279 280 278 275 275 278 280 280 279 279 278 276 277 276 277 279 278 280 279 278 277 284 281 269 267 271 269 266 263 263 268 267 259 260 261